Date String (YYYY-MM-DD hh:mm:ss) UTC,Instrument flags,absolute air pressure of the measurement (hPa),sample flow rate (lpm),inlet stack bypass flow (lpm),air temperature of the measurement (°C),ambient temperature measured by the external sensor (°C),aerosol sample conditioner tube jacket temperature (°C),OPC LED temperature (°C),internal box temperature (°C),relative humidity of the measurement (%),span deviation,mass concentration of particles derived from Lorenz-Mie calculation of OPC scattering (μg/m³),mass concentration of particles derived from Lorenz-Mie calculation of OPC scattering (μg/m³),mass concentration of particles derived from Lorenz-Mie calculation of OPC scattering (μg/m³)
DateTimeUTC,F1_M11,P_M11,Q1_M11,Q2_M11,T1_M11,T2_M11,T3_M11,T4_M11,T5_M11,U1_M11,ZSPAN_M11,X0_M11,X2_M11,X1_M11
2023-09-23 21:00:00,SystemResetWarning,0827.8,5.00,000.00,028.0,025.5,000.0,036.4,029.5,9.6,0000.0,0005.68,0002.63,0002.16
2023-09-23 21:01:00,SystemResetWarning,0828.0,5.00,000.00,028.0,025.9,000.0,036.4,029.5,9.4,0000.0,0005.77,0002.63,0002.14
2023-09-23 21:02:00,SystemResetWarning,0827.8,5.00,000.00,028.0,026.2,000.0,036.4,029.6,9.2,0000.0,0005.43,0002.57,0002.13
2023-09-23 21:03:00,SystemResetWarning,0827.8,4.99,000.00,028.1,026.5,000.0,036.4,029.7,9.2,0000.0,0004.35,0002.60,0002.14
2023-09-23 21:04:00,SystemResetWarning,0827.7,5.01,000.00,028.1,026.8,000.0,036.4,029.8,9.0,0000.0,0004.72,0002.56,0002.13
2023-09-23 21:05:00,SystemResetWarning,0827.8,5.00,000.00,028.2,027.0,000.0,036.4,029.9,8.9,0000.0,0005.69,0002.57,0002.12
2023-09-23 21:06:00,SystemResetWarning,0827.8,5.00,000.00,028.2,027.1,000.0,036.4,030.0,9.0,0000.0,0006.01,0002.55,0002.11
2023-09-23 21:07:00,SystemResetWarning,0827.7,4.98,000.00,028.2,026.1,000.0,036.4,029.8,9.1,0000.0,0006.00,0002.57,0002.10
2023-09-23 21:08:00,SystemResetWarning,0827.7,5.02,000.00,028.1,024.5,000.0,036.3,029.4,9.2,0000.0,0005.67,0002.55,0002.09
2023-09-23 21:09:00,SystemResetWarning,0827.7,5.01,000.00,028.0,024.2,000.0,036.3,029.3,9.1,0000.0,0005.71,0002.57,0002.10
2023-09-23 21:10:00,SystemResetWarning,0827.7,4.99,000.00,027.9,024.5,000.0,036.3,029.2,9.3,0000.0,0005.68,0002.57,0002.10
2023-09-23 21:11:00,SystemResetWarning,0827.7,5.00,000.00,027.9,024.8,000.0,036.3,029.3,9.6,0000.0,0006.09,0002.59,0002.09
2023-09-23 21:12:00,SystemResetWarning,0827.7,5.01,000.00,027.9,025.3,000.0,036.3,029.4,9.3,0000.0,0007.16,0002.62,0002.11
2023-09-23 21:13:00,SystemResetWarning,0827.7,5.01,000.00,027.9,025.7,000.0,036.3,029.4,9.2,0000.0,0007.45,0002.68,0002.11
2023-09-23 21:14:00,SystemResetWarning,0827.8,5.00,000.00,027.9,026.0,000.0,036.3,029.5,9.1,0000.0,0007.94,0002.70,0002.11
2023-09-23 21:15:00,SystemResetWarning,0827.7,4.99,000.00,028.0,026.3,000.0,036.3,029.6,9.7,0000.0,0008.15,0002.72,0002.11
2023-09-23 21:16:00,SystemResetWarning,0827.7,5.00,000.00,028.0,026.6,000.0,036.3,029.7,9.7,0000.0,0007.81,0002.77,0002.14
2023-09-23 21:17:00,SystemResetWarning,0827.7,5.01,000.00,028.1,026.8,000.0,036.3,029.8,9.1,0000.0,0007.45,0002.74,0002.15
2023-09-23 21:18:00,SystemResetWarning,0827.8,5.00,000.00,028.1,027.0,000.0,036.4,029.9,9.2,0000.0,0007.45,0002.70,0002.16
2023-09-23 21:19:00,SystemResetWarning,0827.7,5.00,000.00,028.2,027.2,000.0,036.4,029.9,9.3,0000.0,0007.58,0002.69,0002.16
2023-09-23 21:20:00,SystemResetWarning,0827.8,4.99,000.00,028.2,027.3,000.0,036.4,030.0,9.3,0000.0,0007.52,0002.65,0002.16
2023-09-23 21:21:00,SystemResetWarning,0827.8,5.00,000.00,028.3,026.9,000.0,036.4,029.9,9.2,0000.0,0007.57,0002.67,0002.17
2023-09-23 21:22:00,SystemResetWarning,0827.8,5.00,000.00,028.2,025.1,000.0,036.4,029.5,9.4,0000.0,0007.30,0002.64,0002.17
2023-09-23 21:23:00,SystemResetWarning,0827.8,5.01,000.00,028.1,024.2,000.0,036.3,029.4,9.1,0000.0,0006.45,0002.61,0002.15
2023-09-23 21:24:00,SystemResetWarning,0827.8,5.01,000.00,028.0,024.4,000.0,036.3,029.3,9.1,0000.0,0006.40,0002.61,0002.16
2023-09-23 21:25:00,SystemResetWarning,0827.7,4.99,000.00,027.9,024.8,000.0,036.3,029.3,9.3,0000.0,0005.31,0002.59,0002.17
2023-09-23 21:26:00,SystemResetWarning,0827.8,5.00,000.00,027.9,025.2,000.0,036.3,029.4,9.4,0000.0,0004.67,0002.56,0002.15
2023-09-23 21:27:00,SystemResetWarning,0827.8,5.01,000.00,027.9,025.6,000.0,036.3,029.5,9.2,0000.0,0004.35,0002.55,0002.14
2023-09-23 21:28:00,SystemResetWarning,0827.8,5.01,000.00,028.0,026.0,000.0,036.3,029.5,9.2,0000.0,0004.89,0002.61,0002.14
2023-09-23 21:29:00,SystemResetWarning,0827.8,4.99,000.00,028.0,026.3,000.0,036.3,029.6,9.5,0000.0,0005.16,0002.67,0002.15
2023-09-23 21:30:00,SystemResetWarning,0827.8,4.99,000.00,028.0,026.6,000.0,036.3,029.7,9.3,0000.0,0004.81,0002.69,0002.16
2023-09-23 21:31:00,SystemResetWarning,0827.8,5.00,000.00,028.1,026.9,000.0,036.4,029.8,8.9,0000.0,0004.95,0002.74,0002.17
2023-09-23 21:32:00,SystemResetWarning,0827.8,5.01,000.00,028.1,027.1,000.0,036.4,029.9,9.4,0000.0,0005.04,0002.75,0002.17
2023-09-23 21:33:00,SystemResetWarning,0827.8,5.01,000.00,028.2,027.2,000.0,036.4,030.0,9.2,0000.0,0005.58,0002.78,0002.16
2023-09-23 21:34:00,SystemResetWarning,0827.8,4.99,000.00,028.3,027.4,000.0,036.4,030.0,9.0,0000.0,0006.27,0002.80,0002.17
2023-09-23 21:35:00,SystemResetWarning,0827.8,4.99,000.00,028.3,027.4,000.0,036.5,030.1,9.0,0000.0,0006.28,0002.78,0002.17
2023-09-23 21:36:00,SystemResetWarning,0827.7,5.00,000.00,028.3,026.0,000.0,036.5,029.8,8.9,0000.0,0006.29,0002.78,0002.17
2023-09-23 21:37:00,SystemResetWarning,0827.7,5.01,000.00,028.2,024.5,000.0,036.4,029.4,9.1,0000.0,0006.89,0002.84,0002.18
2023-09-23 21:38:00,SystemResetWarning,0827.8,5.01,000.00,028.1,024.4,000.0,036.3,029.4,9.3,0000.0,0007.07,0002.83,0002.17
2023-09-23 21:39:00,SystemResetWarning,0827.8,4.99,000.00,028.0,024.7,000.0,036.3,029.4,9.7,0000.0,0006.79,0002.75,0002.16
2023-09-23 21:40:00,SystemResetWarning,0827.7,4.99,000.00,028.0,025.1,000.0,036.3,029.4,9.8,0000.0,0006.42,0002.68,0002.14
2023-09-23 21:41:00,SystemResetWarning,0827.8,5.00,000.00,028.0,025.5,000.0,036.3,029.5,9.5,0000.0,0006.46,0002.67,0002.13
2023-09-23 21:42:00,SystemResetWarning,0827.8,5.01,000.00,028.0,025.9,000.0,036.4,029.6,9.3,0000.0,0007.10,0002.64,0002.11
2023-09-23 21:43:00,SystemResetWarning,0827.8,5.00,000.00,028.0,026.2,000.0,036.4,029.7,9.5,0000.0,0007.24,0002.64,0002.12
2023-09-23 21:44:00,SystemResetWarning,0827.9,4.99,000.00,028.1,026.5,000.0,036.4,029.7,9.2,0000.0,0006.84,0002.61,0002.12
2023-09-23 21:45:00,SystemResetWarning,0827.8,5.00,000.00,028.1,026.8,000.0,036.4,029.8,9.5,0000.0,0006.20,0002.62,0002.11
2023-09-23 21:46:00,SystemResetWarning,0827.9,5.00,000.00,028.2,027.0,000.0,036.4,029.9,9.1,0000.0,0006.21,0002.65,0002.11
2023-09-23 21:47:00,SystemResetWarning,0827.9,5.00,000.00,028.2,027.2,000.0,036.5,030.0,9.0,0000.0,0006.24,0002.65,0002.13
2023-09-23 21:48:00,SystemResetWarning,0827.8,5.01,000.00,028.3,027.4,000.0,036.5,030.0,9.0,0000.0,0005.73,0002.62,0002.13
2023-09-23 21:49:00,SystemResetWarning,0827.8,4.99,000.00,028.3,026.6,000.0,036.5,030.0,9.1,0000.0,0005.62,0002.62,0002.14
2023-09-23 21:50:00,SystemResetWarning,0827.7,4.99,000.00,028.2,024.8,000.0,036.4,029.5,9.2,0000.0,0005.24,0002.61,0002.15
2023-09-23 21:51:00,SystemResetWarning,0827.8,5.01,000.00,028.1,024.3,000.0,036.3,029.4,9.3,0000.0,0006.92,0002.66,0002.17
2023-09-23 21:52:00,SystemResetWarning,0827.7,5.01,000.00,028.0,024.6,000.0,036.3,029.4,9.1,0000.0,0007.91,0002.68,0002.17
2023-09-23 21:53:00,SystemResetWarning,0827.7,5.00,000.00,028.0,024.9,000.0,036.3,029.4,9.1,0000.0,0007.54,0002.65,0002.18
2023-09-23 21:54:00,SystemResetWarning,0827.7,5.00,000.00,028.0,025.3,000.0,036.3,029.5,9.2,0000.0,0007.52,0002.61,0002.17
2023-09-23 21:55:00,SystemResetWarning,0827.8,5.00,000.00,028.0,025.7,000.0,036.4,029.5,9.5,0000.0,0007.57,0002.65,0002.19
2023-09-23 21:56:00,SystemResetWarning,0827.8,5.00,000.00,028.0,026.1,000.0,036.4,029.6,9.1,0000.0,0007.91,0002.69,0002.19
2023-09-23 21:57:00,SystemResetWarning,0827.7,5.00,000.00,028.1,026.4,000.0,036.4,029.7,9.0,0000.0,0008.54,0002.64,0002.19
2023-09-23 21:58:00,SystemResetWarning,0827.8,5.00,000.00,028.1,026.7,000.0,036.4,029.8,9.1,0000.0,0009.14,0002.64,0002.18
2023-09-23 21:59:00,SystemResetWarning,0827.8,5.00,000.00,028.2,027.0,000.0,036.4,029.9,8.9,0000.0,0009.47,0002.66,0002.18
